Location: *
(43.9900°N, 3.4811°E)
Time: 18:54:28
(UTC+00:00)

Cosmos 1553 Rocket - Pass Details

Date: 25 August 2019
Orbit: 941 x 1008 km, 82.9° (Epoch: 14 October)

Event Time Altitude Azimuth Distance (km) Brightness Sun altitude
Rises 19:48:11 0° 190° (S) 3,660 6.8 -13.0°
Reaches altitude 10° 19:50:40 10° 192° (SSW) 2,726 6.2 -13.4°
Maximum altitude 19:56:56 78° 278° (W) 1,019 4.2 -14.4°
Drops below altitude 10° 20:03:22 10° 6° (N) 2,785 6.7 -15.4°
Sets 20:05:56 0° 7° (N) 3,744 7.4 -15.8°
